Torna al catalogo

CHAOHU-1

AttivoScienzaSSO
NORAD 51843·PAYLOAD·🇨🇳 China
Questo nome del satellite non è ancora stato confermato da fonti ufficiali.

Lanciato Feb 27, 2022 da Wenchang Space Launch Site

Loading…

Prossimi Passaggi (prossime 24 ore)

TLE

AggiornatoSource: Space-Track

Epoca: Sep 14, 2026, 23:07 UTC

1 51843U 22019V   26257.96339028  .00072801  00000-0  79373-3 0  9997
2 51843  97.3479 348.2776 0004902 183.1500 176.9728 15.63147232253376

Traccia CHAOHU-1 in tempo reale con AllMySat

Download on the App Store